CAPE
0 1 34 88 70 14 32 28 15 22 31 7 0 0 0 0 0 0 0 0 0 0 0 0 0 0 0 0 0 0 0 0 0 0 0 0 0 0 0 0 0 0 0 0 1
1 9 10 2 67 18 17 14 21 12 40 11 0 0 0 0 0 0 0 0 0 0 0 0 0 0 0 0 0 0 0 0 0 0 0 0 0 0 0 0 0 0 0 0 0
9 17 18 0 82 15 19 18 36 10 31 9 0 0 0 0 0 0 0 0 0 0 0 0 0 0 0 0 0 0 0 0 0 0 0 0 0 0 0 0 0 0 0 0 0
9 44 14 0 56 12 13 33 36 13 28 4 0 0 0 0 0 0 0 0 0 0 0 0 0 0 0 0 0 0 0 0 0 0 0 0 0 0 0 0 0 0 0 0 0
28 7 0 11 58 10 8 11 24 24 48 4 0 0 0 0 0 0 0 0 0 0 0 0 0 0 0 0 0 0 0 0 0 0 0 0 0 0 0 0 0 0 0 0 0
0 0 0 0 42 8 3 22 23 17 54 4 0 0 0 0 0 0 0 0 0 0 0 0 0 0 0 0 0 0 0 0 0 0 0 0 0 0 0 0 0 0 0 0 0
0 0 0 1 56 15 1 9 28 13 43 0 0 0 0 0 0 0 0 0 0 0 0 0 0 0 0 0 0 0 0 0 0 0 0 0 0 0 0 0 0 0 0 0 0
4 0 0 47 37 20 1 29 15 38 4 0 0 0 0 0 0 0 0 0 0 0 0 0 0 0 0 0 0 0 0 0 0 0 0 0 0 0 0 0 0 0 0 0 0
6 0 0 3 34 9 2 60 14 111 20 0 1 3 0 0 0 0 0 0 0 0 0 0 0 0 0 0 0 0 0 0 0 0 0 0 0 0 0 0 0 0 0 0 0
11 5 0 1 24 23 7 16 30 80 8 0 0 14 0 0 0 0 0 0 0 0 0 0 0 0 0 0 0 0 1 0 0 0 0 0 0 0 0 0 0 0 0 0 0
24 0 0 0 48 21 42 164 236 10 1 0 0 0 0 0 0 0 0 0 0 0 0 0 0 0 0 0 0 0 0 0 0 0 0 0 0 0 0 0 0 0 0 0 0
12 0 0 0 41 35 55 55 62 0 1 0 0 0 0 0 0 0 0 0 0 0 0 0 0 0 0 0 0 0 0 0 0 0 0 0 0 0 0 0 0 0 0 0 0
0 7 0 15 57 52 32 56 0 0 0 0 0 0 0 0 0 0 0 0 0 0 0 0 0 0 0 0 0 0 0 0 0 0 0 0 0 0 0 0 0 0 0 0 0
1 0 0 0 35 44 92 0 0 0 0 0 3 0 0 0 0 0 0 0 4 0 0 0 0 0 0 0 0 0 0 0 0 0 0 0 0 0 0 0 0 0 0 0 0
2 9 2 0 5 61 22 0 0 0 0 0 0 0 0 0 0 0 0 0 0 0 0 0 0 0 0 0 0 0 0 0 0 0 0 0 0 0 0 0 0 0 0 0 0
5 17 2 0 5 1 0 0 0 5 1 0 4 0 0 0 0 0 0 0 0 0 0 0 0 0 0 0 0 0 0 0 0 0 0 0 0 0 0 0 0 0 0 0 0
5 25 5 1 5 0 0 0 0 0 0 0 1 0 0 0 0 0 0 0 0 0 0 0 0 0 0 0 0 0 0 0 0 0 0 0 0 0 0 0 0 0 0 0 0
1 16 9 6 7 0 0 0 0 0 0 0 0 0 0 0 0 0 0 0 0 0 0 0 0 0 0 0 0 0 0 0 0 0 0 0 0 0 0 0 0 0 0 0 0
0 0 10 19 17 9 0 0 0 0 0 0 0 0 0 0 0 0 0 0 0 0 0 0 0 0 0 0 0 0 0 0 0 0 0 0 0 0 0 0 0 0 0 0 0
0 7 26 32 16 9 2 0 0 0 0 0 0 0 0 0 0 0 0 0 0 0 0 0 0 0 0 0 0 0 0 0 0 0 0 0 0 0 0 0 0 0 0 0 0
0 6 2 39 17 6 0 0 0 0 0 0 0 0 0 0 0 0 0 0 0 0 0 0 0 0 0 0 0 0 0 0 0 0 0 0 0 0 0 0 0 0 0 0 0
0 0 0 10 1 0 0 0 0 0 0 0 0 0 0 0 0 0 0 0 0 0 0 0 0 0 0 0 0 0 0 0 0 0 0 0 0 0 0 0 0 0 0 0 0
0 0 0 8 0 0 1 0 0 0 0 0 0 0 0 0 0 0 0 0 0 0 0 0 0 0 0 0 0 0 0 0 0 0 0 0 0 0 0 0 0 0 0 0 0
0 0 1 0 0 0 0 0 0 0 0 0 0 0 0 0 0 0 0 0 0 0 0 0 0 0 0 0 0 0 0 0 0 0 0 0 0 0 0 0 0 0 0 0 0
1 0 0 0 0 0 1 0 0 0 0 0 0 0 0 0 0 0 0 0 0 0 0 0 0 0 0 0 0 0 0 0 0 0 0 0 0 0 0 0 0 0 0 0 0
0 0 1 0 1 0 0 0 0 0 0 0 0 0 0 0 0 0 0 0 0 0 0 0 0 0 0 0 0 0 0 0 0 0 0 0 0 0 0 0 0 0 0 0 0
0 1 0 1 0 1 0 0 0 0 0 0 0 0 0 0 0 0 0 0 0 0 0 0 0 0 0 0 0 0 0 0 0 0 0 0 0 0 0 0 0 0 0 0 0
CIN
0 -3 0 0 0 -7 -11 -11 -16 -9 -8 -27 0 0 0 0 0 0 0 0 0 0 0 0 0 0 0 0 0 0 0 0 0 0 0 0 0 0 0 0 0 0 0 0 0
-15 -11 -14 0 0 -5 -14 -14 -11 -12 -4 -16 0 0 0 0 0 0 0 0 0 0 0 0 0 0 0 0 0 0 0 0 0 0 0 0 0 0 0 0 0 0 0 0 0
-7 -19 -8 -2 0 -7 -14 -16 -25 -12 -7 -10 0 0 0 0 0 0 0 0 0 0 0 0 0 0 0 0 0 0 0 0 0 0 0 0 0 0 0 0 0 0 0 0 0
-20 -33 -27 0 0 -7 -13 -8 -21 -11 -14 -26 0 0 0 0 0 0 0 0 0 0 0 0 0 0 0 0 0 0 0 0 0 0 0 0 0 0 0 0 0 0 0 0 0
-37 -7 0 -6 -14 -8 -16 -8 -14 -11 -101 -31 0 0 0 0 0 0 0 0 0 0 0 0 0 0 0 0 0 0 0 0 0 0 0 0 0 0 0 0 0 0 0 0 0
0 0 0 0 0 -10 -17 -3 -10 -11 -76 -44 0 0 0 0 0 0 0 0 0 0 0 0 0 0 0 0 0 0 0 0 0 0 0 0 0 0 0 0 0 0 0 0 0
0 0 0 -46 0 -8 -16 -8 -7 -10 -48 0 0 0 0 0 0 0 0 0 0 0 0 0 0 0 0 0 0 0 0 0 0 0 0 0 0 0 0 0 0 0 0 0 0
-9 -7 -5 -1 0 -3 -22 -33 -13 -22 -28 0 0 0 0 0 0 0 0 0 0 0 0 0 0 0 0 0 0 0 0 0 0 0 0 0 0 0 0 0 0 0 0 0 0
-7 0 -12 0 0 -5 -8 -12 -57 -2 -53 0 -7 -15 -7 0 0 0 0 0 0 0 0 0 0 0 0 0 0 0 0 0 0 0 0 0 0 0 0 0 0 0 0 0 0
-5 -19 0 -4 -1 -4 -9 -16 -38 0 -3 0 0 -8 0 0 0 0 0 0 0 0 0 0 0 0 0 0 0 0 0 0 0 0 0 0 0 0 0 0 0 0 0 0 0
-11 -5 0 0 0 -3 -4 0 0 -4 0 0 0 0 0 0 0 0 0 0 0 0 0 0 0 0 0 0 0 0 0 0 0 0 0 0 0 0 0 0 0 0 0 0 0
-18 -2 0 0 -2 -4 0 0 -6 0 0 0 0 0 0 0 0 0 0 0 0 0 0 0 0 0 0 0 0 0 0 0 0 0 0 0 0 0 0 0 0 0 0 0 0
-2 -17 0 -19 -2 0 0 -1 -43 0 0 0 0 0 0 0 0 0 0 0 0 0 0 0 0 0 0 0 0 0 0 0 0 0 0 0 0 0 0 0 0 0 0 0 0
-5 -1 0 -2 0 0 0 0 0 0 0 0 0 0 0 0 0 0 0 -1 -2 0 0 0 0 0 0 0 0 0 0 0 0 0 0 0 0 0 0 0 0 0 0 0 0
-6 -3 -14 -1 0 0 -7 0 0 0 0 0 0 0 0 0 0 0 0 0 0 0 0 0 0 0 0 0 0 0 0 0 0 0 0 0 0 0 0 0 0 0 0 0 0
-7 -7 0 -8 -1 -5 0 0 0 -19 -1 0 0 0 0 0 0 0 0 0 0 0 0 0 0 0 0 0 0 0 0 0 0 0 0 0 0 0 0 0 0 0 0 0 0
-8 0 -3 0 0 0 0 0 0 -4 0 0 0 0 0 0 0 0 0 0 0 0 0 0 0 0 0 0 0 0 0 0 0 0 0 0 0 0 0 0 0 0 0 0 0
-20 -3 -3 -1 -4 0 0 0 0 0 0 0 0 0 0 0 0 0 0 0 0 0 0 0 0 0 0 0 0 0 0 0 0 0 0 0 0 0 0 0 0 0 0 0 0
0 -3 -6 -3 -6 0 0 0 0 0 0 0 0 0 0 0 0 0 0 0 0 0 0 0 0 0 0 0 0 0 0 0 0 0 0 0 0 0 0 0 0 0 0 0 0
0 -15 -2 -2 -5 0 0 0 0 0 0 0 0 0 0 0 0 0 0 0 0 0 0 0 0 0 0 0 0 0 0 0 0 0 0 0 0 0 0 0 0 0 0 0 0
0 -3 -3 -24 -3 0 0 0 0 0 0 0 0 0 0 0 0 0 0 0 0 0 0 0 0 0 0 0 0 0 0 0 0 0 0 0 0 0 0 0 0 0 0 0 0
0 -2 0 -24 0 0 0 0 0 0 0 0 0 0 0 0 0 0 0 0 0 0 0 0 0 0 0 0 0 0 0 0 0 0 0 0 0 0 0 0 0 0 0 0 0
0 0 0 -14 0 0 0 0 0 0 0 0 0 0 0 0 0 0 0 0 0 0 0 0 0 0 0 0 0 0 0 0 0 0 0 0 0 0 0 0 0 0 0 0 0
0 0 -3 0 0 0 0 0 0 0 0 0 0 0 0 0 0 0 0 0 0 0 0 0 0 0 0 0 0 0 0 0 0 0 0 0 0 0 0 0 0 0 0 0 0
0 0 0 -3 0 0 0 0 0 0 0 0 0 0 0 0 0 0 0 0 0 0 0 0 0 0 0 0 0 0 0 0 0 0 0 0 0 0 0 0 0 0 0 0 0
0 0 0 0 0 0 0 0 0 0 0 0 0 0 0 0 0 0 0 0 0 0 0 0 0 0 0 0 0 0 0 0 0 0 0 0 0 0 0 0 0 0 0 0 0
0 0 0 0 0 0 0 0 0 0 0 0 0 0 0 0 0 0 0 0 0 0 0 0 0 0 0 0 0 0 0 0 0 0 0 0 0 0 0 0 0 0 0 0 0
Wind_Speed
42 42 46 46 41 39 39 36 36 34 32 30 29 27 24 22 20 22 30 26 22 19 15 13 16 16 17 20 20 18 24 26 23 20 19 13 14 12 12 8 11 9 11 9 16
43 47 44 41 43 39 38 36 35 35 32 30 28 26 23 20 25 30 26 22 22 15 15 14 14 13 18 19 20 21 25 22 22 21 20 17 17 10 13 9 12 10 11 9 14
45 45 45 46 43 37 37 36 35 34 33 29 28 25 22 19 27 33 25 18 15 15 15 17 9 13 15 15 22 24 26 22 22 22 21 21 18 14 12 15 13 3 5 9 13
47 48 42 43 42 36 34 33 34 33 32 30 27 25 23 24 35 25 21 17 13 12 12 12 14 17 18 12 15 21 23 22 22 23 21 21 18 18 15 18 18 10 5 10 13
39 41 44 42 42 38 33 31 33 33 30 29 26 24 24 31 30 20 18 16 15 15 17 16 15 16 15 16 14 16 20 21 20 22 24 20 23 20 20 18 16 7 1 6 10
37 40 47 45 48 38 32 30 33 33 29 27 26 24 28 38 22 12 17 18 18 18 19 18 17 14 18 18 17 12 20 26 23 25 23 22 23 21 21 16 14 6 3 4 8
30 36 41 48 40 37 33 30 35 31 31 28 25 25 29 29 21 16 15 22 20 20 19 19 15 16 15 17 18 17 25 28 28 25 25 22 26 28 20 15 14 11 9 7 6
30 28 38 42 44 39 34 33 36 30 27 28 25 24 30 23 19 19 16 16 15 15 17 16 12 15 20 19 19 21 21 27 26 26 25 26 33 25 20 18 19 14 12 10 9
23 28 31 40 37 33 34 40 39 32 29 27 25 26 30 21 23 22 18 17 15 13 14 14 18 21 20 18 21 24 22 18 29 26 28 29 32 23 21 22 22 19 14 12 13
24 29 30 25 43 37 38 36 33 31 29 26 25 24 28 35 23 22 20 18 17 14 17 21 22 23 21 24 26 22 24 24 25 26 30 34 35 32 24 26 26 24 20 17 15
26 29 28 34 46 43 38 40 44 34 31 33 33 30 27 23 19 24 22 18 18 22 28 25 29 32 27 23 23 23 24 27 24 28 32 37 41 38 32 27 29 28 24 22 23
24 24 27 34 46 43 45 47 37 34 26 24 30 22 21 23 25 24 24 25 28 31 24 28 36 29 24 23 22 20 21 25 29 26 29 38 43 39 36 36 30 27 31 27 25
23 22 29 34 46 44 53 47 35 30 29 24 26 26 23 24 27 25 24 22 29 31 31 33 29 26 27 27 26 24 21 21 26 26 30 33 45 42 38 37 35 29 34 33 29
24 25 35 32 43 46 50 37 37 31 29 30 33 28 25 23 27 27 24 20 25 33 28 31 26 28 29 31 27 32 24 25 26 28 33 28 44 38 38 42 39 36 33 35 33
26 26 33 32 24 48 45 38 41 33 41 30 27 20 24 28 22 30 26 23 26 27 27 34 30 28 32 30 23 28 18 23 29 32 31 29 38 39 35 45 43 41 35 35 38
27 29 31 29 32 38 39 34 35 45 43 25 26 29 26 24 25 25 23 17 18 21 27 26 24 26 28 22 23 17 19 23 26 29 38 33 34 44 37 38 40 38 39 35 40
28 27 29 31 32 38 40 43 44 54 33 30 34 34 29 27 25 29 32 29 29 32 34 28 25 24 21 23 20 23 23 29 33 33 36 28 30 49 28 24 25 34 38 38 41
26 27 28 38 30 39 41 48 49 41 37 33 30 34 30 25 27 29 31 32 27 24 25 32 37 25 22 24 29 28 28 31 36 36 35 27 35 36 28 24 23 25 34 37 40
25 27 31 35 33 34 49 54 41 39 34 34 32 34 31 33 28 29 34 35 29 24 28 30 32 21 18 19 19 28 36 26 31 30 34 33 36 38 32 24 20 22 26 34 39
27 29 30 33 29 34 50 41 38 32 30 31 36 38 39 33 32 35 35 32 28 27 23 22 28 22 20 16 21 26 22 32 32 38 41 39 39 36 26 27 24 23 25 34 36
27 30 26 27 26 35 50 44 34 32 30 34 35 36 35 36 32 34 33 27 30 28 23 18 22 24 20 28 25 22 28 27 28 31 38 41 37 26 25 24 23 21 27 32 37
29 35 26 26 34 36 44 39 33 32 31 31 32 34 36 35 36 34 35 34 29 29 28 25 20 25 28 27 26 28 27 26 34 36 36 37 41 19 20 20 19 17 24 28 31
29 31 24 30 36 43 37 40 36 36 35 32 34 34 33 35 38 39 40 36 28 33 32 29 28 27 28 29 27 30 29 27 29 29 41 43 50 25 33 31 28 28 28 28 28
28 33 30 30 33 38 44 43 38 35 34 29 31 31 29 36 35 39 37 32 31 30 29 25 30 38 38 35 28 35 33 32 32 37 40 43 49 35 29 30 27 26 26 26 23
27 31 31 39 44 37 40 44 42 42 35 33 31 34 33 37 37 34 34 32 32 31 28 29 40 35 37 34 30 34 34 33 35 36 37 41 47 40 39 40 37 35 32 30 29
27 30 29 30 33 39 40 46 52 44 40 38 37 35 33 37 39 34 30 31 33 29 32 31 38 38 35 32 34 36 33 33 36 38 38 46 51 31 30 31 32 33 31 32 31
18 19 27 31 34 40 42 41 52 45 39 40 36 36 41 35 28 25 25 23 22 26 31 38 37 32 40 35 36 42 42 38 39 41 39 43 48 40 41 39 34 33 32 34 33
Wind_Direction
251 253 247 238 232 230 229 228 224 223 226 228 230 231 234 236 237 239 242 247 247 257 246 251 257 260 257 255 261 265 257 254 260 268 269 273 269 286 299 323 312 336 2 17 101
252 248 246 252 230 227 227 225 223 221 223 225 226 228 229 230 238 241 247 244 243 248 240 242 248 253 258 255 261 256 252 257 262 265 267 267 266 277 284 299 299 303 324 66 106
244 250 249 250 226 223 225 223 221 219 221 221 223 223 223 226 240 243 239 239 239 241 241 248 242 253 258 265 261 256 252 258 263 268 272 265 266 274 279 279 285 335 66 103 120
241 238 243 246 222 219 220 221 216 214 217 217 217 219 218 231 235 250 220 227 224 233 236 229 248 250 258 252 262 251 258 258 263 266 270 268 268 267 270 276 283 296 107 121 135
249 246 237 245 221 216 215 217 211 209 210 209 211 212 220 230 239 259 213 215 226 232 236 238 238 249 253 253 255 260 258 259 263 269 267 274 264 266 266 275 286 296 209 142 143
252 247 237 245 222 212 209 212 207 205 205 202 205 209 223 229 247 241 215 220 226 232 238 242 246 253 257 257 254 272 263 257 260 266 270 270 266 263 268 272 281 276 234 179 161
254 247 244 233 212 208 209 208 205 205 200 200 197 216 225 231 242 226 222 232 230 235 236 247 249 251 257 259 267 278 262 260 257 265 268 270 263 257 269 270 272 271 268 252 226
246 246 238 220 209 208 206 208 202 194 187 188 195 220 229 237 233 215 223 221 232 231 239 244 247 254 256 262 266 262 273 258 262 258 266 262 257 262 264 265 267 270 265 256 246
255 242 239 223 205 202 204 206 202 191 187 186 207 222 229 229 223 220 215 219 225 229 239 240 246 249 253 255 256 257 262 264 265 260 263 262 259 269 266 264 264 267 262 255 252
250 237 236 234 210 204 205 198 197 186 189 202 216 219 234 221 219 216 223 214 226 216 237 242 247 246 248 244 251 257 255 267 266 264 261 260 259 261 272 263 263 263 262 257 251
246 240 238 228 211 205 197 193 200 210 193 213 207 227 215 211 212 219 212 215 222 231 236 240 242 236 240 248 258 256 262 263 275 269 266 263 260 260 261 267 262 261 261 258 257
254 247 239 222 206 204 198 201 199 208 192 219 199 220 215 203 214 212 207 223 224 228 236 241 243 244 241 244 253 262 265 268 271 277 272 266 262 262 260 259 263 263 259 258 258
251 252 231 226 204 202 202 203 196 202 208 216 218 218 207 206 210 207 205 229 226 230 236 240 254 246 241 245 249 258 263 272 273 277 273 275 264 262 263 261 261 264 259 258 258
244 241 226 224 204 202 203 200 197 203 209 215 214 217 213 208 224 221 215 225 235 232 236 247 253 243 243 245 249 255 263 268 275 275 273 275 266 266 264 260 257 257 259 258 258
239 240 226 219 213 205 201 196 194 206 220 219 216 220 216 211 200 218 221 235 230 232 237 243 244 244 245 247 249 260 259 268 271 272 279 279 273 273 270 261 258 255 258 259 258
235 233 224 225 221 211 195 193 203 216 228 227 218 210 199 215 215 204 218 237 234 236 242 248 253 251 248 249 246 254 262 271 277 274 273 273 271 268 272 269 264 261 257 259 257
229 230 223 220 214 201 189 198 210 217 217 219 210 206 203 215 214 201 215 224 227 232 237 243 251 252 247 240 244 248 249 264 267 267 271 282 269 263 282 284 280 266 261 258 257
234 230 221 216 220 206 193 205 214 216 216 218 207 202 216 206 215 213 213 222 231 234 234 238 245 244 246 238 249 245 247 259 265 267 271 276 274 277 276 278 294 284 267 263 261
230 225 224 217 217 213 197 209 213 211 215 209 202 203 218 218 221 217 220 224 228 226 241 242 251 251 247 246 240 252 250 262 272 277 273 272 277 279 276 286 290 277 275 268 266
223 222 223 220 218 218 202 213 220 215 206 198 211 215 216 204 218 219 221 227 228 227 243 250 249 257 247 246 249 251 251 254 262 266 268 273 274 277 285 279 280 285 283 276 273
224 221 227 219 222 218 211 215 217 213 201 212 219 220 221 208 220 216 221 244 222 222 240 239 257 253 243 247 241 247 249 257 261 267 268 270 276 285 282 284 287 296 292 287 278
223 219 230 222 217 218 214 218 217 209 217 227 225 229 221 213 223 221 226 234 219 218 226 238 254 253 248 258 252 249 254 244 257 261 265 272 269 303 293 300 303 311 311 305 295
222 224 234 222 217 216 218 216 217 211 218 224 226 229 225 222 230 233 237 234 226 223 221 228 246 250 252 259 258 250 251 247 255 270 263 267 267 287 274 288 298 302 306 309 307
225 220 225 224 226 223 218 214 216 217 222 228 224 226 221 226 235 234 237 235 232 231 235 230 249 246 249 257 256 254 252 253 251 260 265 266 269 273 282 285 294 302 305 305 312
230 225 224 221 220 225 218 218 213 215 223 222 227 222 224 227 228 237 235 235 235 236 237 240 246 254 258 261 260 259 254 251 252 256 260 265 268 271 273 277 286 293 296 295 294
232 228 231 227 222 221 221 220 215 218 219 220 226 221 224 226 227 228 231 234 235 236 236 245 249 249 258 260 259 259 259 257 255 259 263 267 270 286 278 281 286 291 292 290 292
252 250 233 227 222 220 224 225 219 218 226 223 222 221 225 233 236 240 242 238 241 232 237 240 245 252 257 260 262 262 257 260 262 261 263 265 264 276 275 278 284 289 290 289 291